Duvenstedt, Germany

5:13 PM CEST on April 19, 2018 (GMT +0200)
Duvenstedt

Weather History for 10147 - February, 2014

Change the Weather History Date:

Thursday, February 13, 2014

  Actual Average Record
Temperature  
Mean Temperature 42 °F -  
Max Temperature 47 °F 42 °F - ()
Min Temperature 35 °F 31 °F - ()
Degree Days  
Heating Degree Days 23    
Moisture  
Dew Point 35 °F    
Average Humidity 71    
Maximum Humidity 96    
Minimum Humidity 47    
Precipitation  
Precipitation 0.00 in 0.06 in - ()
Sea Level Pressure  
Sea Level Pressure 29.35 in    
Wind  
Wind Speed 15 mph ()    
Max Wind Speed 24 mph    
Max Gust Speed 34 mph    
Visibility 7.8 miles    
Events Rain    
T = Trace of Precipitation, MM = Missing Value Source: Averaged Metar Reports

Daily Weather History Graph

Daily Weather History Graph

Search for Another Location

Airport or City:

Astronomy

Feb. 13, 2014 Rise Set
Actual Time 7:43 AM CET 5:25 PM CET
Civil Twilight 7:06 AM CET 6:02 PM CET
Nautical Twilight 6:25 AM CET 6:43 PM CET
Astronomical Twilight 5:45 AM CET 7:24 PM CET
Moon 4:17 PM CET (2/13) 6:30 AM CET (2/13)
Length of Visible Light 10h 55m
Length of Day
9h 42m
Waxing Gibbous, 98% of the Moon is Illuminated
Feb 13
Waxing Gibbous
Feb 15
Full
Feb 22
Last Quarter
Mar 1
New
Mar 8
First Quarter

Hourly Weather History & Observations

Time (CET) Temp. Windchill Dew Point Humidity Pressure Visibility Wind Dir Wind Speed Gust Speed Precip Events Conditions
12:00 AM 42 °F - 31 °F 54% 29.45 in 19 mi South 22.4 mph - -   Mostly Cloudy
12:20 AM 42.8 °F 34.0 °F 32.0 °F 66% 29.42 in 6.2 mi South 20.7 mph - N/A Rain Light Rain
12:50 AM 41.0 °F 31.6 °F 32.0 °F 70% 29.39 in 6.2 mi South 20.7 mph 32.2 mph N/A Rain Light Rain
1:00 AM 42 °F - 33 °F 61% 29.42 in 12 mi South 20.1 mph - - Rain Light Rain
1:20 AM 41.0 °F 32.2 °F 33.8 °F 76% 29.39 in 6.2 mi South 18.4 mph - N/A Rain Light Rain
1:50 AM 41.0 °F 32.2 °F 33.8 °F 76% 29.39 in 6.2 mi South 18.4 mph - N/A Rain Light Rain
2:00 AM 40 °F - 35 °F 74% 29.39 in 12 mi South 17.9 mph - - Rain Light Rain
2:20 AM 41.0 °F 32.5 °F 33.8 °F 76% 29.36 in 6.2 mi South 17.3 mph - N/A   Mostly Cloudy
2:50 AM 41.0 °F 32.8 °F 33.8 °F 76% 29.36 in 6.2 mi South 16.1 mph - N/A   Mostly Cloudy
3:00 AM 41 °F - 35 °F 70% 29.37 in 16 mi South 15.7 mph - - Rain Light Rain
3:20 AM 42.8 °F 34.5 °F 35.6 °F 76% 29.36 in 6.2 mi South 18.4 mph - N/A   Mostly Cloudy
3:50 AM 42.8 °F 35.1 °F 35.6 °F 76% 29.33 in 6.2 mi South 16.1 mph - N/A   Mostly Cloudy
4:20 AM 42.8 °F 34.5 °F 35.6 °F 76% 29.33 in 6.2 mi SSW 18.4 mph - N/A   Mostly Cloudy
4:50 AM 42.8 °F 34.5 °F 37.4 °F 81% 29.33 in 6.2 mi SSW 18.4 mph - N/A Rain Light Rain
5:00 AM 42 °F - 36 °F 74% 29.36 in 22 mi SSW 17.9 mph - - Rain Light Rain
5:20 AM 42.8 °F 34.5 °F 35.6 °F 76% 29.33 in 6.2 mi SSW 18.4 mph - N/A   Mostly Cloudy
5:50 AM 42.8 °F 34.8 °F 35.6 °F 76% 29.33 in 6.2 mi SSW 17.3 mph - N/A   Mostly Cloudy
6:00 AM 43 °F - 36 °F 67% 29.36 in 22 mi SSW 15.7 mph - - Rain Light Rain
6:20 AM 42.8 °F 34.5 °F 35.6 °F 76% 29.33 in 6.2 mi SSW 18.4 mph - N/A   Mostly Cloudy
6:50 AM 42.8 °F 34.3 °F 35.6 °F 76% 29.36 in 6.2 mi SSW 19.6 mph - N/A   Mostly Cloudy
7:00 AM 43 °F - 35 °F 66% 29.36 in 22 mi SSW 17.9 mph - -   Partly Cloudy
7:20 AM 42.8 °F 34.3 °F 35.6 °F 76% 29.33 in 6.2 mi SSW 19.6 mph - N/A   Mostly Cloudy
7:50 AM 42.8 °F 34.5 °F 35.6 °F 76% 29.36 in 6.2 mi SSW 18.4 mph - N/A   Mostly Cloudy
8:00 AM 42 °F - 35 °F 69% 29.37 in 25 mi SSW 17.9 mph - -   Mostly Cloudy
8:20 AM 42.8 °F 34.3 °F 35.6 °F 76% 29.36 in 6.2 mi SSW 19.6 mph - N/A   Scattered Clouds
8:50 AM 42.8 °F 34.3 °F 35.6 °F 76% 29.36 in 6.2 mi SSW 19.6 mph - N/A   Partly Cloudy
9:00 AM 42 °F - 35 °F 70% 29.37 in 25 mi SSW 17.9 mph - -   Scattered Clouds
9:20 AM 42.8 °F 34.3 °F 35.6 °F 76% 29.36 in 6.2 mi SSW 19.6 mph - N/A   Scattered Clouds
9:50 AM 44.6 °F 36.6 °F 35.6 °F 71% 29.36 in 6.2 mi SSW 19.6 mph - N/A   Scattered Clouds
10:20 AM 44.6 °F 36.1 °F 35.6 °F 71% 29.33 in 6.2 mi SW 21.9 mph 34.5 mph N/A   Scattered Clouds
10:50 AM 46.4 °F 38.1 °F 35.6 °F 66% 29.36 in 6.2 mi SW 24.2 mph - N/A   Partly Cloudy
11:00 AM 45 °F - 35 °F 59% 29.36 in 25 mi SW 22.4 mph - -   Scattered Clouds
11:20 AM 46.4 °F 38.1 °F 33.8 °F 62% 29.36 in 6.2 mi SW 24.2 mph - N/A   Partly Cloudy
11:50 AM 46.4 °F 38.7 °F 33.8 °F 62% 29.36 in 6.2 mi SW 20.7 mph - N/A   Scattered Clouds
12:00 PM 47 °F - 34 °F 50% 29.36 in 25 mi SW 20.1 mph - -   Partly Cloudy
12:20 PM 46.4 °F 38.1 °F 33.8 °F 62% 29.33 in 6.2 mi SW 24.2 mph - N/A   Scattered Clouds
12:50 PM 46.4 °F 39.5 °F 33.8 °F 62% 29.33 in 6.2 mi SW 17.3 mph - N/A   Partly Cloudy
1:00 PM 47 °F - 34 °F 50% 29.35 in 25 mi SW 17.9 mph - -   Scattered Clouds
1:20 PM 46.4 °F 40.7 °F 33.8 °F 62% 29.33 in 6.2 mi SW 12.7 mph - N/A   Scattered Clouds
1:50 PM 46.4 °F 39.8 °F 32.0 °F 57% 29.30 in 6.2 mi SSW 16.1 mph - N/A   Mostly Cloudy
2:00 PM 46 °F - 32 °F 47% 29.33 in 19 mi SSW 15.7 mph - -   Scattered Clouds
2:20 PM 46.4 °F 40.1 °F 32.0 °F 57% 29.30 in 6.2 mi SSW 15.0 mph - N/A   Mostly Cloudy
2:50 PM 46.4 °F 40.7 °F 32.0 °F 57% 29.30 in 6.2 mi SW 12.7 mph - N/A   Mostly Cloudy
3:00 PM 46 °F - 33 °F 49% 29.32 in 19 mi SSW 13.4 mph - -   Scattered Clouds
3:20 PM 46.4 °F 41.5 °F 32.0 °F 57% 29.30 in 6.2 mi SSW 10.4 mph - N/A   Overcast
3:50 PM 46.4 °F 41.1 °F 33.8 °F 62% 29.30 in 6.2 mi South 11.5 mph - N/A   Overcast
4:20 PM 46.4 °F 41.1 °F 33.8 °F 62% 29.33 in 6.2 mi South 11.5 mph - N/A   Overcast
4:50 PM 46.4 °F 41.9 °F 33.8 °F 62% 29.33 in 6.2 mi South 9.2 mph - N/A   Mostly Cloudy
5:00 PM 46 °F - 34 °F 52% 29.34 in 19 mi South 8.9 mph - -   Overcast
5:20 PM 46.4 °F 42.4 °F 33.8 °F 62% 29.30 in 6.2 mi SSE 8.1 mph - N/A   Mostly Cloudy
5:50 PM 44.6 °F 40.2 °F 33.8 °F 66% 29.30 in 6.2 mi SSE 8.1 mph - N/A   Mostly Cloudy
6:00 PM 45 °F - 34 °F 55% 29.33 in 19 mi SSE 6.7 mph - -   Overcast
6:20 PM 44.6 °F 41.4 °F 33.8 °F 66% 29.33 in 6.2 mi SSE 5.8 mph - N/A   Mostly Cloudy
6:50 PM 44.6 °F 43.1 °F 33.8 °F 66% 29.33 in 6.2 mi Variable 3.5 mph - N/A Rain Light Rain
7:00 PM 44 °F - 34 °F 58% 29.33 in 12 mi SSW 2.2 mph - - Rain Light Rain
7:20 PM 41.0 °F 37.1 °F 35.6 °F 81% 29.33 in 6.2 mi SW 5.8 mph - N/A Rain Rain
7:50 PM 39.2 °F 37.0 °F 37.4 °F 93% 29.33 in 6.2 mi WNW 3.5 mph - N/A Rain Light Rain
8:00 PM 40 °F - 38 °F 88% 29.34 in 9 mi WNW 2.2 mph - - Rain Light Rain
8:20 PM 39.2 °F - 37.4 °F 93% 29.33 in 6.2 mi Variable 2.3 mph - N/A Rain Light Rain
8:50 PM 39.2 °F - 37.4 °F 93% 29.33 in 6.2 mi Variable 2.3 mph - N/A Rain Rain
9:00 PM 39 °F - 38 °F 92% 29.36 in 9 mi WSW 2.2 mph - - Rain Rain
9:20 PM 39.2 °F - 37.4 °F 93% 29.36 in 6.2 mi NW 2.3 mph - N/A Rain Rain
9:50 PM 39.2 °F 37.0 °F 37.4 °F 93% 29.36 in 6.2 mi NW 3.5 mph - N/A Rain Rain
10:20 PM 39.2 °F 37.0 °F 37.4 °F 93% 29.36 in - NW 3.5 mph - N/A   Unknown
10:50 PM 39.2 °F 35.0 °F 37.4 °F 93% 29.36 in 5.6 mi West 5.8 mph - N/A Rain Rain
11:00 PM 38 °F - 37 °F 96% 29.39 in 6 mi West 6.7 mph - - Rain Rain
11:20 PM 37.4 °F 32.1 °F 35.6 °F 93% 29.39 in 5.6 mi WSW 6.9 mph - N/A Rain Rain
11:50 PM 35.6 °F 29.2 °F 33.8 °F 93% 29.42 in 5.6 mi West 8.1 mph - N/A Rain Rain